Time,TemperatureF,DewpointF,PressureIn,WindDirection,WindDirectionDegrees,WindSpeedMPH,WindSpeedGustMPH,Humidity,HourlyPrecipIn,Conditions,Clouds,dailyrainin,SolarRadiationWatts/m^2,SoftwareType,DateUTC
2013-04-28 00:00:00,54.9,49.5,30.05,NNE,22,1.0,4.0,82,0.00,,CLR,0.00,0.00,VWS V14.01,2013-04-28 07:00:00,
2013-04-28 00:10:00,55.3,48.9,30.04,NNE,22,0.0,1.0,79,0.00,,CLR,0.00,0.00,VWS V14.01,2013-04-28 07:10:00,
2013-04-28 00:20:00,54.9,49.2,30.04,NNE,22,0.0,1.0,81,0.00,,CLR,0.00,0.00,VWS V14.01,2013-04-28 07:20:00,
2013-04-28 00:30:00,54.9,49.5,30.05,NNE,22,0.0,2.0,82,0.00,,CLR,0.00,0.00,VWS V14.01,2013-04-28 07:30:00,
2013-04-28 00:40:00,54.5,48.1,30.05,NNE,22,0.0,1.0,79,0.00,,CLR,0.00,0.00,VWS V14.01,2013-04-28 07:40:00,
2013-04-28 00:50:00,53.8,47.5,30.04,NNE,22,0.0,0.0,79,0.00,,CLR,0.00,0.00,VWS V14.01,2013-04-28 07:50:00,
2013-04-28 01:00:00,53.5,47.8,30.04,NNE,22,0.0,2.0,81,0.00,,CLR,0.00,0.00,VWS V14.01,2013-04-28 08:00:00,
2013-04-28 01:10:00,53.5,47.2,30.04,NNE,22,0.0,1.0,79,0.00,,CLR,0.00,0.00,VWS V14.01,2013-04-28 08:10:00,
2013-04-28 01:20:00,53.5,46.5,30.04,NNE,22,0.0,1.0,77,0.00,,CLR,0.00,0.00,VWS V14.01,2013-04-28 08:20:00,
2013-04-28 01:30:00,53.8,46.8,30.04,NNE,22,0.0,1.0,77,0.00,,CLR,0.00,0.00,VWS V14.01,2013-04-28 08:30:00,
2013-04-28 01:40:00,53.2,45.8,30.04,NNE,22,0.0,1.0,76,0.00,,CLR,0.00,0.00,VWS V14.01,2013-04-28 08:40:00,
2013-04-28 01:50:00,52.5,46.8,30.04,NNE,22,0.0,1.0,81,0.00,,CLR,0.00,0.00,VWS V14.01,2013-04-28 08:50:00,
2013-04-28 02:00:00,52.6,46.3,30.03,NNE,22,0.0,0.0,79,0.00,,CLR,0.00,0.00,VWS V14.01,2013-04-28 09:00:00,
2013-04-28 02:10:00,51.9,46.6,30.03,NNE,22,0.0,0.0,82,0.00,,CLR,0.00,0.00,VWS V14.01,2013-04-28 09:10:00,
2013-04-28 02:20:00,51.9,46.3,30.03,NNE,22,0.0,0.0,81,0.00,,CLR,0.00,0.00,VWS V14.01,2013-04-28 09:20:00,
2013-04-28 02:30:00,51.5,45.9,30.03,NNE,22,0.0,0.0,81,0.00,,CLR,0.00,0.00,VWS V14.01,2013-04-28 09:30:00,
2013-04-28 02:40:00,51.0,46.0,30.03,NNE,22,0.0,1.0,83,0.00,,CLR,0.00,0.00,VWS V14.01,2013-04-28 09:40:00,
2013-04-28 02:50:00,50.0,45.4,30.03,NNE,22,0.0,0.0,84,0.00,,CLR,0.00,0.00,VWS V14.01,2013-04-28 09:50:00,
2013-04-28 03:00:00,49.8,45.5,30.03,NNE,22,0.0,0.0,85,0.00,,CLR,0.00,0.00,VWS V14.01,2013-04-28 10:00:00,
2013-04-28 03:10:00,49.9,45.3,30.03,NNE,22,0.0,0.0,84,0.00,,CLR,0.00,0.00,VWS V14.01,2013-04-28 10:10:00,
2013-04-28 03:20:00,50.1,45.2,30.02,NNE,22,0.0,2.0,83,0.00,,CLR,0.00,0.00,VWS V14.01,2013-04-28 10:20:00,
2013-04-28 03:30:00,49.9,44.6,30.02,NNE,22,0.0,0.0,82,0.00,,CLR,0.00,0.00,VWS V14.01,2013-04-28 10:30:00,
2013-04-28 03:40:00,49.4,44.1,30.02,NNE,22,0.0,0.0,82,0.00,,CLR,0.00,0.00,VWS V14.01,2013-04-28 10:40:00,
2013-04-28 03:50:00,48.6,44.0,30.02,NNE,22,0.0,0.0,84,0.00,,CLR,0.00,0.00,VWS V14.01,2013-04-28 10:50:00,
2013-04-28 04:00:00,48.8,44.8,30.02,NNE,22,0.0,1.0,86,0.00,,CLR,0.00,0.00,VWS V14.01,2013-04-28 11:00:00,
2013-04-28 04:10:00,48.9,44.9,30.01,NNE,22,0.0,0.0,86,0.00,,CLR,0.00,0.00,VWS V14.01,2013-04-28 11:10:00,
2013-04-28 04:20:00,49.1,45.1,30.01,NNE,22,0.0,1.0,86,0.00,,CLR,0.00,0.00,VWS V14.01,2013-04-28 11:20:00,
2013-04-28 04:30:00,48.6,44.6,30.01,NNE,22,0.0,0.0,86,0.00,,CLR,0.00,0.00,VWS V14.01,2013-04-28 11:30:00,
2013-04-28 04:40:00,48.6,44.6,30.01,NNE,22,0.0,1.0,86,0.00,,CLR,0.00,0.00,VWS V14.01,2013-04-28 11:40:00,
2013-04-28 04:50:00,48.7,44.7,30.01,NNE,22,0.0,1.0,86,0.00,,CLR,0.00,0.00,VWS V14.01,2013-04-28 11:50:00,
2013-04-28 05:00:00,48.7,44.4,30.01,NNE,22,0.0,0.0,85,0.00,,CLR,0.00,0.00,VWS V14.01,2013-04-28 12:00:00,
2013-04-28 05:10:00,49.0,44.7,30.01,NNE,22,0.0,1.0,85,0.00,,CLR,0.00,0.00,VWS V14.01,2013-04-28 12:10:00,
2013-04-28 05:20:00,49.3,44.4,30.01,NNE,22,0.0,1.0,83,0.00,,CLR,0.00,0.00,VWS V14.01,2013-04-28 12:20:00,
2013-04-28 05:30:00,49.9,44.3,30.01,NNE,22,0.0,0.0,81,0.00,,CLR,0.00,0.00,VWS V14.01,2013-04-28 12:30:00,
2013-04-28 05:40:00,50.1,44.2,30.00,NNE,22,0.0,1.0,80,0.00,,CLR,0.00,0.00,VWS V14.01,2013-04-28 12:40:00,
2013-04-28 05:50:00,50.5,44.2,30.00,NNE,22,0.0,1.0,79,0.00,,CLR,0.00,0.00,VWS V14.01,2013-04-28 12:50:00,
2013-04-28 06:00:00,50.7,43.4,30.01,NNE,22,0.0,0.0,76,0.00,,CLR,0.00,0.00,VWS V14.01,2013-04-28 13:00:00,
2013-04-28 06:10:00,50.7,43.1,30.01,NNE,22,0.0,0.0,75,0.00,,CLR,0.00,0.00,VWS V14.01,2013-04-28 13:10:00,
2013-04-28 06:20:00,50.5,43.6,30.01,NNE,22,0.0,0.0,77,0.00,,CLR,0.00,1.00,VWS V14.01,2013-04-28 13:20:00,
2013-04-28 06:30:00,50.3,43.7,30.01,NNE,22,0.0,0.0,78,0.00,,CLR,0.00,9.00,VWS V14.01,2013-04-28 13:30:00,
2013-04-28 06:40:00,50.1,43.8,30.01,NNE,22,0.0,0.0,79,0.00,,CLR,0.00,15.00,VWS V14.01,2013-04-28 13:40:00,
2013-04-28 06:50:00,50.0,43.8,30.01,NNE,22,0.0,0.0,79,0.00,,CLR,0.00,20.00,VWS V14.01,2013-04-28 13:50:00,
2013-04-28 07:00:00,50.0,43.4,30.01,NNE,22,0.0,0.0,78,0.00,,CLR,0.00,25.00,VWS V14.01,2013-04-28 14:00:00,
2013-04-28 07:19:00,49.9,43.3,30.02,NNE,24,0.0,0.0,78,0.00,,CLR,0.00,67.00,VWS V14.01,2013-04-28 14:19:00,
2013-04-28 07:29:00,51.1,44.2,30.02,NNE,24,0.0,0.0,77,0.00,,CLR,0.00,171.00,VWS V14.01,2013-04-28 14:29:00,
2013-04-28 07:39:00,52.7,45.4,30.02,NNE,24,0.0,0.0,76,0.00,,,0.00,204.00,VWS V14.01,2013-04-28 14:39:00,
2013-04-28 07:49:00,53.3,45.6,30.02,NNE,24,0.0,0.0,75,0.00,,,0.00,244.00,VWS V14.01,2013-04-28 14:49:00,
2013-04-28 07:59:00,53.9,46.2,30.02,NNE,24,0.0,0.0,75,0.00,,,0.00,281.00,VWS V14.01,2013-04-28 14:59:00,
2013-04-28 08:09:00,54.9,47.1,30.02,NNE,24,0.0,0.0,75,0.00,,,0.00,316.00,VWS V14.01,2013-04-28 15:09:00,
2013-04-28 08:19:00,54.8,47.0,30.02,NNE,24,0.0,0.0,75,0.00,,,0.00,352.00,VWS V14.01,2013-04-28 15:19:00,
2013-04-28 08:29:00,55.3,47.5,30.02,NNE,24,0.0,0.0,75,0.00,,,0.00,387.00,VWS V14.01,2013-04-28 15:29:00,
2013-04-28 08:39:00,56.2,47.7,30.02,NNE,24,0.0,0.0,73,0.00,,,0.00,418.00,VWS V14.01,2013-04-28 15:39:00,
2013-04-28 08:49:00,57.6,48.3,30.02,NNE,24,0.0,1.0,71,0.00,,,0.00,450.00,VWS V14.01,2013-04-28 15:49:00,
2013-04-28 08:59:00,59.0,48.1,30.02,NNE,24,0.0,1.0,67,0.00,,,0.00,482.00,VWS V14.01,2013-04-28 15:59:00,
2013-04-28 09:09:00,61.3,47.8,30.02,NNE,24,0.0,1.0,61,0.00,,,0.00,517.00,VWS V14.01,2013-04-28 16:09:00,
2013-04-28 09:19:00,63.5,48.9,30.02,West,263,0.0,6.0,59,0.00,,,0.00,543.00,VWS V14.01,2013-04-28 16:19:00,
2013-04-28 09:29:00,64.2,50.0,30.02,South,178,0.0,4.0,60,0.00,,,0.00,577.00,VWS V14.01,2013-04-28 16:29:00,
2013-04-28 09:39:00,64.9,49.8,30.01,South,169,0.0,2.0,58,0.00,,,0.00,605.00,VWS V14.01,2013-04-28 16:39:00,
2013-04-28 09:49:00,66.4,50.2,30.01,NW,305,0.0,4.0,56,0.00,,,0.00,636.00,VWS V14.01,2013-04-28 16:49:00,
2013-04-28 09:59:00,68.0,46.5,30.01,NW,325,0.0,10.0,46,0.00,,,0.00,664.00,VWS V14.01,2013-04-28 16:59:00,
2013-04-28 10:09:00,69.4,46.0,30.01,North,349,0.0,7.0,43,0.00,,,0.00,691.00,VWS V14.01,2013-04-28 17:09:00,
2013-04-28 10:19:00,70.6,46.4,30.01,North,360,5.0,9.0,42,0.00,,,0.00,715.00,VWS V14.01,2013-04-28 17:19:00,
2013-04-28 10:29:00,71.6,46.7,30.01,NNW,340,4.0,7.0,41,0.00,,,0.00,740.00,VWS V14.01,2013-04-28 17:29:00,
2013-04-28 10:39:00,73.0,46.6,30.01,NNW,342,8.0,10.0,39,0.00,,,0.00,765.00,VWS V14.01,2013-04-28 17:39:00,
2013-04-28 10:49:00,73.9,47.4,30.01,NW,314,4.0,11.0,39,0.00,,,0.00,786.00,VWS V14.01,2013-04-28 17:49:00,
2013-04-28 10:59:00,75.1,46.3,30.01,NNW,345,0.0,8.0,36,0.00,,,0.00,805.00,VWS V14.01,2013-04-28 17:59:00,
2013-04-28 11:09:00,75.8,47.0,30.01,North,355,6.0,10.0,36,0.00,,CLR,0.00,826.00,VWS V14.01,2013-04-28 18:09:00,
2013-04-28 11:19:00,76.2,46.6,30.01,NW,325,0.0,11.0,35,0.00,,CLR,0.00,846.00,VWS V14.01,2013-04-28 18:19:00,
2013-04-28 11:29:00,77.1,47.4,30.01,NNW,330,4.0,9.0,35,0.00,,CLR,0.00,861.00,VWS V14.01,2013-04-28 18:29:00,
2013-04-28 11:39:00,78.1,49.7,30.01,NNW,327,3.0,5.0,37,0.00,,CLR,0.00,882.00,VWS V14.01,2013-04-28 18:39:00,
2013-04-28 11:49:00,79.1,47.6,30.00,NNE,20,0.0,9.0,33,0.00,,CLR,0.00,875.00,VWS V14.01,2013-04-28 18:49:00,
2013-04-28 11:59:00,79.7,48.1,30.00,SSE,148,0.0,6.0,33,0.00,,CLR,0.00,846.00,VWS V14.01,2013-04-28 18:59:00,
2013-04-28 12:09:00,81.0,48.4,30.00,NNW,333,0.0,4.0,32,0.00,,FEW250,0.00,935.00,VWS V14.01,2013-04-28 19:09:00,
2013-04-28 12:19:00,81.3,49.5,30.00,West,263,0.0,6.0,33,0.00,,FEW250,0.00,828.00,VWS V14.01,2013-04-28 19:19:00,
2013-04-28 12:29:00,81.8,49.1,29.99,West,277,0.0,6.0,32,0.00,,FEW250,0.00,930.00,VWS V14.01,2013-04-28 19:29:00,
2013-04-28 12:39:00,82.4,49.6,29.99,North,360,4.0,4.0,32,0.00,,FEW250,0.00,944.00,VWS V14.01,2013-04-28 19:39:00,
2013-04-28 12:50:00,83.0,50.1,29.98,North,0,1.0,5.0,32,0.00,,FEW250,0.00,950.00,VWS V14.01,2013-04-28 19:50:00,
2013-04-28 13:00:00,83.2,51.9,29.98,SE,135,0.0,1.0,34,0.00,,FEW250,0.00,956.00,VWS V14.01,2013-04-28 20:00:00,
2013-04-28 13:10:00,84.3,51.3,29.97,NNE,22,1.0,5.0,32,0.00,,FEW250,0.00,955.00,VWS V14.01,2013-04-28 20:10:00,
2013-04-28 13:20:00,84.7,51.6,29.97,ESE,112,1.0,5.0,32,0.00,,FEW250,0.00,831.00,VWS V14.01,2013-04-28 20:20:00,
2013-04-28 13:30:00,85.1,53.6,29.96,South,180,1.0,5.0,34,0.00,,FEW250,0.00,938.00,VWS V14.01,2013-04-28 20:30:00,
2013-04-28 13:40:00,85.8,53.4,29.96,South,180,1.0,7.0,33,0.00,,FEW250,0.00,949.00,VWS V14.01,2013-04-28 20:40:00,
2013-04-28 13:50:00,85.7,54.1,29.95,SSE,158,2.0,7.0,34,0.00,,FEW250,0.00,948.00,VWS V14.01,2013-04-28 20:50:00,
2013-04-28 14:00:00,86.9,56.8,29.95,SSW,202,2.0,10.0,36,0.00,,FEW250,0.00,954.00,VWS V14.01,2013-04-28 21:00:00,
2013-04-28 14:10:00,87.2,54.6,29.94,ESE,112,2.0,7.0,33,0.00,,FEW250,0.00,862.00,VWS V14.01,2013-04-28 21:10:00,
2013-04-28 14:20:00,87.3,54.7,29.94,SW,225,2.0,7.0,33,0.00,,FEW250,0.00,911.00,VWS V14.01,2013-04-28 21:20:00,
2013-04-28 14:30:00,88.2,55.5,29.94,South,180,0.0,6.0,33,0.00,,FEW250,0.00,872.00,VWS V14.01,2013-04-28 21:30:00,
2013-04-28 14:40:00,88.9,56.1,29.93,South,180,2.0,5.0,33,0.00,,FEW250,0.00,881.00,VWS V14.01,2013-04-28 21:40:00,
2013-04-28 14:50:00,88.5,56.6,29.93,ESE,112,1.0,5.0,34,0.00,,FEW250,0.00,896.00,VWS V14.01,2013-04-28 21:50:00,
2013-04-28 15:00:00,88.6,54.1,29.92,SSE,158,2.0,6.0,31,0.00,,FEW250,0.00,878.00,VWS V14.01,2013-04-28 22:00:00,
2013-04-28 15:10:00,89.1,55.4,29.92,ESE,112,2.0,7.0,32,0.00,,FEW250,0.00,814.00,VWS V14.01,2013-04-28 22:10:00,
2013-04-28 15:20:00,89.3,53.8,29.91,SSE,158,1.0,6.0,30,0.00,,FEW250,0.00,792.00,VWS V14.01,2013-04-28 22:20:00,
2013-04-28 15:30:00,89.2,55.5,29.91,South,180,2.0,8.0,32,0.00,,FEW250,0.00,788.00,VWS V14.01,2013-04-28 22:30:00,
2013-04-28 15:40:00,89.3,55.6,29.91,SSE,158,3.0,6.0,32,0.00,,FEW250,0.00,776.00,VWS V14.01,2013-04-28 22:40:00,
2013-04-28 15:50:00,90.3,56.5,29.90,SE,135,1.0,4.0,32,0.00,,FEW250,0.00,735.00,VWS V14.01,2013-04-28 22:50:00,
2013-04-28 16:00:00,89.9,56.1,29.90,ESE,112,1.0,7.0,32,0.00,,FEW250,0.00,676.00,VWS V14.01,2013-04-28 23:00:00,
2013-04-28 16:10:00,89.8,56.9,29.89,ESE,112,2.0,9.0,33,0.00,,FEW250,0.00,683.00,VWS V14.01,2013-04-28 23:10:00,
2013-04-28 16:20:00,89.7,56.8,29.89,ESE,112,2.0,7.0,33,0.00,,FEW250,0.00,615.00,VWS V14.01,2013-04-28 23:20:00,
2013-04-28 16:30:00,89.7,56.8,29.88,ESE,112,2.0,7.0,33,0.00,,FEW250,0.00,618.00,VWS V14.01,2013-04-28 23:30:00,
2013-04-28 16:40:00,89.7,56.8,29.88,ESE,112,3.0,10.0,33,0.00,,FEW250,0.00,610.00,VWS V14.01,2013-04-28 23:40:00,
2013-04-28 16:50:00,90.4,59.8,29.88,SW,225,1.0,6.0,36,0.00,,FEW250,0.00,581.00,VWS V14.01,2013-04-28 23:50:00,
2013-04-28 17:00:00,90.6,55.0,29.88,SW,225,4.0,11.0,30,0.00,,FEW250,0.00,553.00,VWS V14.01,2013-04-29 00:00:00,
2013-04-28 17:10:00,90.3,54.7,29.88,West,270,5.0,12.0,30,0.00,,FEW250,0.00,521.00,VWS V14.01,2013-04-29 00:10:00,
2013-04-28 17:20:00,90.5,53.9,29.88,West,270,4.0,10.0,29,0.00,,FEW250,0.00,489.00,VWS V14.01,2013-04-29 00:20:00,
2013-04-28 17:30:00,89.8,53.3,29.88,West,270,6.0,15.0,29,0.00,,FEW250,0.00,458.00,VWS V14.01,2013-04-29 00:30:00,
2013-04-28 17:40:00,89.1,52.7,29.88,West,270,8.0,14.0,29,0.00,,FEW250,0.00,423.00,VWS V14.01,2013-04-29 00:40:00,
2013-04-28 17:50:00,88.3,51.1,29.88,WSW,248,8.0,13.0,28,0.00,,FEW250,0.00,389.00,VWS V14.01,2013-04-29 00:50:00,
2013-04-28 18:00:00,88.2,50.0,29.88,West,270,6.0,12.0,27,0.00,,FEW250,0.00,358.00,VWS V14.01,2013-04-29 01:00:00,
2013-04-28 18:10:00,87.7,49.6,29.88,West,270,6.0,12.0,27,0.00,,FEW250,0.00,322.00,VWS V14.01,2013-04-29 01:10:00,
2013-04-28 18:20:00,87.4,49.3,29.88,West,270,4.0,10.0,27,0.00,,FEW250,0.00,290.00,VWS V14.01,2013-04-29 01:20:00,
2013-04-28 18:30:00,86.8,49.8,29.87,West,270,5.0,9.0,28,0.00,,FEW250,0.00,260.00,VWS V14.01,2013-04-29 01:30:00,
2013-04-28 18:40:00,86.4,50.4,29.87,West,270,2.0,9.0,29,0.00,,FEW250,0.00,229.00,VWS V14.01,2013-04-29 01:40:00,
2013-04-28 18:50:00,85.9,50.9,29.87,West,270,1.0,5.0,30,0.00,,FEW250,0.00,195.00,VWS V14.01,2013-04-29 01:50:00,
2013-04-28 19:00:00,85.1,51.1,29.87,WSW,248,1.0,7.0,31,0.00,,FEW250,0.00,164.00,VWS V14.01,2013-04-29 02:00:00,
2013-04-28 19:10:00,84.1,50.2,29.87,WSW,248,2.0,6.0,31,0.00,,FEW250,0.00,137.00,VWS V14.01,2013-04-29 02:10:00,
2013-04-28 19:20:00,83.4,51.3,29.87,WSW,248,1.0,4.0,33,0.00,,FEW250,0.00,105.00,VWS V14.01,2013-04-29 02:20:00,
2013-04-28 19:30:00,82.4,50.4,29.87,WSW,248,0.0,5.0,33,0.00,,FEW250,0.00,59.00,VWS V14.01,2013-04-29 02:30:00,
2013-04-28 19:40:00,80.4,50.3,29.87,North,0,1.0,4.0,35,0.00,,FEW250,0.00,30.00,VWS V14.01,2013-04-29 02:40:00,
2013-04-28 19:50:00,78.7,49.5,29.87,North,0,1.0,4.0,36,0.00,,FEW250,0.00,22.00,VWS V14.01,2013-04-29 02:50:00,
2013-04-28 20:00:00,77.8,50.9,29.87,NW,315,0.0,5.0,39,0.00,,FEW250,0.00,9.00,VWS V14.01,2013-04-29 03:00:00,
2013-04-28 20:10:00,75.9,51.2,29.87,North,0,1.0,5.0,42,0.00,,FEW250,0.00,1.00,VWS V14.01,2013-04-29 03:10:00,
2013-04-28 20:20:00,73.7,50.5,29.88,North,0,0.0,1.0,44,0.00,,FEW250,0.00,0.00,VWS V14.01,2013-04-29 03:20:00,
2013-04-28 20:30:00,73.0,49.2,29.88,North,0,0.0,3.0,43,0.00,,FEW250,0.00,0.00,VWS V14.01,2013-04-29 03:30:00,
2013-04-28 20:40:00,73.2,48.8,29.88,North,0,0.0,4.0,42,0.00,,FEW250,0.00,0.00,VWS V14.01,2013-04-29 03:40:00,
2013-04-28 20:50:00,73.0,48.6,29.88,North,0,0.0,4.0,42,0.00,,FEW250,0.00,0.00,VWS V14.01,2013-04-29 03:50:00,
2013-04-28 21:00:00,72.4,48.0,29.89,North,0,0.0,3.0,42,0.00,,FEW250,0.00,0.00,VWS V14.01,2013-04-29 04:00:00,
2013-04-28 21:10:00,72.1,47.8,29.89,NNW,338,1.0,5.0,42,0.00,,FEW250,0.00,0.00,VWS V14.01,2013-04-29 04:10:00,
2013-04-28 21:20:00,71.4,48.4,29.89,North,0,0.0,6.0,44,0.00,,FEW250,0.00,0.00,VWS V14.01,2013-04-29 04:20:00,
2013-04-28 21:30:00,71.3,47.7,29.89,NNW,338,2.0,5.0,43,0.00,,FEW250,0.00,0.00,VWS V14.01,2013-04-29 04:30:00,
2013-04-28 21:40:00,71.0,48.0,29.90,NNE,22,0.0,3.0,44,0.00,,FEW250,0.00,0.00,VWS V14.01,2013-04-29 04:40:00,
2013-04-28 21:50:00,69.9,47.6,29.90,NNE,22,0.0,1.0,45,0.00,,FEW250,0.00,0.00,VWS V14.01,2013-04-29 04:50:00,
2013-04-28 22:00:00,69.0,48.0,29.90,North,0,0.0,1.0,47,0.00,,FEW250,0.00,0.00,VWS V14.01,2013-04-29 05:00:00,
2013-04-28 22:10:00,68.3,47.9,29.90,NW,315,1.0,5.0,48,0.00,,FEW250,0.00,0.00,VWS V14.01,2013-04-29 05:10:00,
2013-04-28 22:20:00,67.7,47.9,29.90,NW,315,0.0,1.0,49,0.00,,FEW250,0.00,0.00,VWS V14.01,2013-04-29 05:20:00,
2013-04-28 22:30:00,66.8,47.6,29.90,NW,315,0.0,1.0,50,0.00,,FEW250,0.00,0.00,VWS V14.01,2013-04-29 05:30:00,
2013-04-28 22:40:00,66.5,47.3,29.90,NW,315,0.0,1.0,50,0.00,,FEW250,0.00,0.00,VWS V14.01,2013-04-29 05:40:00,
2013-04-28 22:50:00,66.3,47.1,29.90,NW,315,0.0,3.0,50,0.00,,FEW250,0.00,0.00,VWS V14.01,2013-04-29 05:50:00,
2013-04-28 23:00:00,66.4,47.2,29.90,NNW,338,0.0,3.0,50,0.00,,FEW250,0.00,0.00,VWS V14.01,2013-04-29 06:00:00,
2013-04-28 23:10:00,66.1,46.9,29.90,NNW,338,0.0,1.0,50,0.00,,FEW250,0.00,0.00,VWS V14.01,2013-04-29 06:10:00,
2013-04-28 23:20:00,65.6,47.0,29.89,NNW,338,0.0,1.0,51,0.00,,FEW250,0.00,0.00,VWS V14.01,2013-04-29 06:20:00,
2013-04-28 23:30:00,65.1,47.1,29.89,NNW,338,0.0,1.0,52,0.00,,FEW250,0.00,0.00,VWS V14.01,2013-04-29 06:30:00,
2013-04-28 23:40:00,64.9,46.9,29.89,NNW,338,0.0,1.0,52,0.00,,FEW250,0.00,0.00,VWS V14.01,2013-04-29 06:40:00,
2013-04-28 23:50:00,64.4,46.9,29.89,NNW,338,0.0,3.0,53,0.00,,FEW250,0.00,0.00,VWS V14.01,2013-04-29 06:50:00,